CW9181 Weather Reports


time (UTC)temp
C
wind
direction
speed
KPH
gust
KPH
rain 1hr
cm
rain 24hr
cm
rain mn
cm
humidity
%
barometer
mb
20260831100024 17 159 4.8 8.0 0.00 0.00 0.00 69 1010.4
20260831095023 17 161 4.8 11.3 0.00 0.00 0.00 68 1010.4
20260831094041 17 172 4.8 9.7 0.00 0.00 0.00 69 1010.3
20260831093018 17 174 3.2 9.7 0.00 0.00 0.00 67 1010.4
20260831092021 17 174 4.8 9.7 0.00 0.00 0.00 66 1010.4
20260831091019 18 153 4.8 11.3 0.00 0.00 0.00 65 1010.7
20260831090014 18 153 3.2 6.4 0.00 0.00 0.00 64 1010.6
20260831085019 18 157 3.2 9.7 0.00 0.00 0.00 64 1010.5
20260831084022 18 153 4.8 12.9 0.00 0.00 0.00 63 1010.6
20260831083019 18 167 4.8 11.3 0.00 0.00 0.00 63 1010.6
20260831082022 18 150 4.8 8.0 0.00 0.00 0.00 62 1010.4
20260831081023 19 188 4.8 11.3 0.00 0.00 0.00 62 1010.6
20260831080014 19 147 3.2 8.0 0.00 0.00 0.00 62 1010.7
20260831075019 19 155 3.2 12.9 0.00 0.00 0.00 61 1010.7
20260831074019 19 115 6.4 16.1 0.00 0.00 0.00 61 1010.6
20260831073019 20 149 3.2 8.0 0.00 0.00 0.00 61 1010.5
20260831072020 20 157 3.2 11.3 0.00 0.00 0.00 60 1010.3
20260831071108 20 130 4.8 8.0 0.00 0.00 0.00 60 1010.4
20260831070025 20 107 4.8 11.3 0.00 0.00 0.00 59 1010.4
20260831065019 20 128 6.4 9.7 0.00 0.00 0.00 58 1010.4
20260831064017 20 128 4.8 9.7 0.00 0.00 0.00 57 1010.5
20260831063012 21 98 4.8 11.3 0.00 0.00 0.00 57 1010.5
20260831062030 21 145 3.2 11.3 0.00 0.00 0.00 57 1010.6
20260831061049 21 114 4.8 14.5 0.00 0.00 0.00 56 1010.6
20260831060039 21 139 4.8 11.3 0.00 0.00 0.00 56 1010.6
20260831055012 21 137 4.8 12.9 0.00 0.00 0.00 56 1010.5
20260831054013 21 149 6.4 12.9 0.00 0.00 0.00 55 1010.5
20260831053029 22 127 4.8 12.9 0.00 0.00 0.00 54 1010.4
20260831052022 22 126 4.8 8.0 0.00 0.00 0.00 52 1010.5
20260831051035 22 191 3.2 9.7 0.00 0.00 0.00 52 1010.4
20260831050031 23 155 3.2 9.7 0.00 0.00 0.00 50 1010.3
20260831045026 23 147 1.6 6.4 0.00 0.00 0.00 47 1010.4
20260831044018 23 172 4.8 11.3 0.00 0.00 0.00 47 1010.3
20260831043031 23 195 3.2 9.7 0.00 0.00 0.00 45 1010.3
20260831042028 24 187 3.2 9.7 0.00 0.00 0.00 45 1010.2
20260831041020 24 173 6.4 12.9 0.00 0.00 0.00 44 1010.1
20260831040016 25 209 3.2 11.3 0.00 0.00 0.00 42 1009.8
20260831035030 25 163 3.2 9.7 0.00 0.00 0.00 41 1009.7
20260831034018 26 204 3.2 6.4 0.00 0.00 0.00 39 1009.7
20260831033018 26 165 1.6 6.4 0.00 0.00 0.00 38 1009.6
20260831032017 27 194 4.8 9.7 0.00 0.00 0.00 37 1009.5
20260831031048 27 253 1.6 9.7 0.00 0.00 0.00 36 1009.5
20260831030020 27 184 3.2 14.5 0.00 0.00 0.00 35 1009.4
20260831025018 28 184 3.2 16.1 0.00 0.00 0.00 34 1009.3
20260831024031 28 221 3.2 16.1 0.00 0.00 0.00 34 1009.2
20260831023048 29 253 3.2 8.0 0.00 0.00 0.00 33 1009.1
20260831022019 30 186 1.6 8.0 0.00 0.00 0.00 31 1009.0
20260831021033 30 199 1.6 8.0 0.00 0.00 0.00 29 1009.1
20260831020011 31 152 1.6 6.4 0.00 0.00 0.00 29 1009.1
20260831015027 31 152 3.2 8.0 0.00 0.00 0.00 28 1009.1
20260831014027 31 184 3.2 9.7 0.00 0.00 0.00 28 1009.1
20260831013026 32 172 3.2 9.7 0.00 0.00 0.00 25 1009.1
20260831012015 32 227 1.6 6.4 0.00 0.00 0.00 25 1009.2
20260831011012 32 168 3.2 9.7 0.00 0.00 0.00 25 1009.3
20260831010011 32 260 3.2 8.0 0.00 0.00 0.00 28 1009.2
20260831005025 32 313 4.8 9.7 0.00 0.00 0.00 27 1009.4
20260831004042 33 169 3.2 8.0 0.00 0.00 0.00 23 1009.4
20260831003041 33 186 3.2 6.4 0.00 0.00 0.00 26 1009.4
20260831002030 33 137 1.6 8.0 0.00 0.00 0.00 26 1009.5
20260831001029 33 153 3.2 9.7 0.00 0.00 0.00 27 1009.6
20260831000025 32 227 3.2 9.7 0.00 0.00 0.00 26 1009.7
20260830235018 33 202 4.8 12.9 0.00 0.00 0.00 26 1009.7
20260830234030 33 162 1.6 9.7 0.00 0.00 0.00 26 1009.7
20260830233048 32 224 4.8 9.7 0.00 0.00 0.00 28 1009.9
20260830232020 32 122 1.6 11.3 0.00 0.00 0.00 28 1010.1
20260830231022 32 231 1.6 4.8 0.00 0.00 0.00 30 1010.2
20260830230017 32 200 4.8 11.3 0.00 0.00 0.00 27 1010.2
20260830225031 32 224 4.8 11.3 0.00 0.00 0.00 28 1010.3
20260830224027 31 195 6.4 12.9 0.00 0.00 0.00 28 1010.4
20260830223039 31 239 3.2 9.7 0.00 0.00 0.00 31 1010.6
20260830222011 30 265 6.4 16.1 0.00 0.00 0.00 32 1010.8
20260830221030 30 164 1.6 9.7 0.00 0.00 0.00 30 1010.9
20260830220025 30 244 3.2 9.7 0.00 0.00 0.00 32 1011.1
20260830215024 29 215 3.2 11.3 0.00 0.00 0.00 35 1011.2
20260830214020 29 190 1.6 9.7 0.00 0.00 0.00 35 1011.3
20260830213012 29 245 1.6 8.0 0.00 0.00 0.00 34 1011.6
20260830212012 28 200 4.8 8.0 0.00 0.00 0.00 35 1011.6
20260830211031 28 158 3.2 11.3 0.00 0.00 0.00 38 1011.8
20260830210025 28 64 1.6 6.4 0.00 0.00 0.00 37 1011.8
20260830205024 28 198 4.8 12.9 0.00 0.00 0.00 39 1012.0
20260830204018 28 304 9.7 12.9 0.00 0.00 0.00 39 1012.1
20260830203014 27 265 6.4 14.5 0.00 0.00 0.00 39 1012.2
20260830202015 28 236 3.2 6.4 0.00 0.00 0.00 42 1012.3
20260830201015 28 247 4.8 11.3 0.00 0.00 0.00 37 1012.4
20260830200028 28 185 3.2 12.9 0.00 0.00 0.00 39 1012.4
20260830195025 27 18 3.2 12.9 0.00 0.00 0.00 41 1012.4
20260830194022 27 186 3.2 11.3 0.00 0.00 0.00 41 1012.4
20260830193016 27 224 4.8 11.3 0.00 0.00 0.00 42 1012.8
20260830192012 27 150 3.2 11.3 0.00 0.00 0.00 44 1012.6
20260830191011 26 143 4.8 9.7 0.00 0.00 0.00 43 1012.8
20260830190011 26 201 6.4 8.0 0.00 0.00 0.00 44 1012.9
20260830185048 26 182 4.8 11.3 0.00 0.00 0.00 45 1013.1
20260830184026 25 127 3.2 8.0 0.00 0.00 0.00 46 1013.2
20260830183019 25 121 3.2 8.0 0.00 0.00 0.00 44 1013.2
20260830182013 25 315 1.6 6.4 0.00 0.00 0.00 47 1013.3
20260830181030 24 134 1.6 11.3 0.00 0.00 0.00 47 1013.3
20260830180025 24 154 6.4 9.7 0.00 0.00 0.00 47 1013.4
20260830175046 23 255 0.0 6.4 0.00 0.00 0.00 50 1013.4
20260830174026 23 298 1.6 8.0 0.00 0.00 0.00 49 1013.5
20260830173021 22 170 1.6 8.0 0.00 0.00 0.00 53 1013.5
20260830172019 22 123 6.4 11.3 0.00 0.00 0.00 53 1013.6
20260830171016 21 176 4.8 9.7 0.00 0.00 0.00 56 1013.5
20260830170015 21 115 3.2 8.0 0.00 0.00 0.00 57 1013.5
20260830165015 21 140 4.8 11.3 0.00 0.00 0.00 57 1013.7
20260830164031 20 159 0.0 9.7 0.00 0.00 0.00 61 1013.5
20260830163023 20 92 6.4 9.7 0.00 0.00 0.00 62 1013.5
20260830162041 19 181 3.2 8.0 0.00 0.00 0.00 64 1013.5
20260830161021 19 137 4.8 9.7 0.00 0.00 0.00 63 1013.5
20260830160035 19 114 4.8 8.0 0.00 0.00 0.00 64 1013.6
20260830155030 18 105 6.4 11.3 0.00 0.00 0.00 66 1013.6
20260830154031 18 147 4.8 9.7 0.00 0.00 0.00 64 1013.7
20260830153027 18 103 4.8 8.0 0.00 0.00 0.00 65 1013.7
20260830152027 17 124 6.4 11.3 0.00 0.00 0.00 67 1013.4
20260830151048 17 151 6.4 11.3 0.00 0.00 0.00 69 1013.5
20260830150023 16 149 4.8 8.0 0.00 0.00 0.00 72 1013.4
20260830145045 16 132 3.2 6.4 0.00 0.00 0.00 73 1013.4
20260830144023 15 178 3.2 8.0 0.00 0.00 0.00 74 1013.4
20260830143017 15 142 3.2 6.4 0.00 0.00 0.00 75 1013.3
20260830142017 15 116 1.6 6.4 0.00 0.00 0.00 75 1013.2
20260830141014 14 120 3.2 6.4 0.00 0.00 0.00 75 1013.1
20260830140027 14 126 3.2 6.4 0.00 0.00 0.00 75 1013.0
20260830135045 14 133 0.0 0.0 0.00 0.00 0.00 75 1012.9
20260830134024 14 128 0.0 0.0 0.00 0.00 0.00 74 1012.8
20260830133021 14 116 0.0 0.0 0.00 0.00 0.00 75 1012.8
20260830132019 14 159 0.0 0.0 0.00 0.00 0.00 75 1012.7
20260830131040 14 159 0.0 0.0 0.00 0.00 0.00 74 1012.7
20260830130018 14 159 0.0 0.0 0.00 0.00 0.00 75 1012.5
20260830125012 15 160 0.0 3.2 0.00 0.00 0.00 74 1012.5
20260830124030 15 169 1.6 3.2 0.00 0.00 0.00 74 1012.4
20260830123026 15 134 0.0 3.2 0.00 0.00 0.00 74 1012.1
20260830122024 15 151 0.0 0.0 0.00 0.00 0.00 73 1012.1
20260830121022 15 104 0.0 0.0 0.00 0.00 0.00 71 1012.2
20260830120019 15 105 0.0 3.2 0.00 0.00 0.00 71 1012.2
20260830115023 15 126 3.2 4.8 0.00 0.00 0.00 71 1012.2
20260830114024 15 138 3.2 4.8 0.00 0.00 0.00 71 1012.2
20260830113020 15 134 0.0 0.0 0.00 0.00 0.00 71 1012.3
20260830112020 15 93 0.0 0.0 0.00 0.00 0.00 70 1012.3
20260830111020 16 95 0.0 0.0 0.00 0.00 0.00 70 1012.3
20260830110016 16 83 0.0 0.0 0.00 0.00 0.00 70 1012.3
20260830105038 16 83 0.0 0.0 0.00 0.00 0.00 69 1012.2
20260830104018 16 73 0.0 0.0 0.00 0.00 0.00 69 1012.2
20260830103015 16 115 0.0 0.0 0.00 0.00 0.00 69 1012.1
20260830102012 16 112 0.0 0.0 0.00 0.00 0.00 69 1012.1
20260830101049 16 126 0.0 0.0 0.00 0.00 0.00 68 1012.1